Гранитогорск

Казахстан     42°44′33″N   73°28′08″E
темп.,
°C
ветер,
м/с
пор.,
м/с
влажн.,
%
обл.,
%
осадки,
мм/ч
давл.,
гПа
погр.,
м
9 марта, вт
вт900:00+1юв2375100 1.0 102666
03:00+1юв3373100 0.0 102446
06:000ююв335663 0.0 102426
09:00+2юв226199 0.0 102248
12:00+4св128399 0.0 1019163
15:00+5св127793 0.0 1017302
18:00+6юв126896 0.0 101686
21:00+5ю3356100 0.0 101630
10 марта, ср
ср1000:00+5ю4458100 0.0 101541
03:00+6ю4451100 0.0 101243
06:00+6ююз4356100 0.1 101238
09:00+5ю2261100 0.0 101430
12:00+7всв1275100 0.0 1014241
15:00+7ссв3477100 0.1 1013730
18:00+3зсз1394100 4.0 1015205
21:00+3ююз1492100 5.0 1017268
11 марта, чт
чт1100:00+1зсз3597100 8.3 1017212
03:00−2ссз3499100 5.4 1017214
06:00−3ссв1299100 11.6 1020110
09:00−3юв2395100 2.4 1022144
12:00−2св3399100 4.2 1022225
15:00−1всв1297100 0.6 1022194
18:00−1св2296100 0.7 1023141
21:00−2ю126933 0.0 102422
12 марта, пт
пт1200:00−2ююв126532 0.0 102492
03:00−2ююв236189 0.0 1023108
06:00−2ююв225894 0.0 102128
09:000вюв236398 0.0 101978
12:00+2св118795 0.0 1015137
15:00+3с0184100 0.0 1012165
18:00+2ююз1272100 0.0 101151
21:00+1юз1254100 0.0 101222
13 марта, сб
сб1300:00+2юз1258100 0.0 101225
03:00+1зюз1166100 0.0 101140
06:00−1зюз1484100 0.1 101494
09:000юв1287100 0.0 101589
12:00+4юв2283100 0.0 1014156
15:00+4в2381100 0.0 1011335
18:00+4всв1287100 0.0 100965
21:00+3ссв1288100 0.0 101024